This is the latest recevied weather packets stored in our database for station/object JA6CFI-13. If no packets are shown the sender has not sent any weather packets the latest 10 day(s).
| Time | Temp. | Humidity | Pressure | Rain* | Wind** | Luminosity | Snow |
|---|---|---|---|---|---|---|---|
| 1777860440 | 18.33° C | 59% | 1013.3 hPa | 0 mm | - | - | - |
| 1777859662 | 18.33° C | 57% | 1013.2 hPa | 0 mm | - | - | - |
| 1777858881 | 17.78° C | 57% | 1013.1 hPa | 0 mm | - | - | - |
| 1777858101 | 17.22° C | 59% | 1013.2 hPa | 0 mm | - | - | - |
| 1777857320 | 17.22° C | 62% | 1013.2 hPa | 0 mm | - | - | - |
| 1777857124 | 16.67° C | 63% | 1013.1 hPa | 0 mm | - | - | - |
| 1777856540 | 16.67° C | 64% | 1013 hPa | 0 mm | - | - | - |
| 1777855761 | 16.11° C | 69% | 1012.9 hPa | 0 mm | - | - | - |
| 1777854981 | 16.11° C | 69% | 1012.8 hPa | 0 mm | - | - | - |
| 1777854200 | 15.56° C | 70% | 1012.5 hPa | 0 mm | - | - | - |
| 1777853420 | 15.56° C | 70% | 1012.4 hPa | 0 mm | - | - | - |
| 1777852640 | 15.56° C | 70% | 1012.1 hPa | 0 mm | - | - | - |
| 1777851860 | 15.56° C | 71% | 1011.8 hPa | 0 mm | - | - | - |
| 1777851081 | 15.56° C | 71% | 1011.3 hPa | 0 mm | - | - | - |
| 1777850301 | 15.56° C | 73% | 1011.2 hPa | 0 mm | - | - | - |
| 1777849520 | 15.56° C | 71% | 1010.9 hPa | 0 mm | - | - | - |
| 1777848740 | 15.56° C | 72% | 1010.8 hPa | 0 mm | - | - | - |
| 1777847961 | 15.56° C | 72% | 1010.6 hPa | 0 mm | - | - | - |
| 1777847181 | 15° C | 73% | 1010.6 hPa | 0 mm | - | - | - |
| 1777846401 | 15° C | 73% | 1010.3 hPa | 0 mm | - | - | - |
| 1777845620 | 15° C | 73% | 1010.1 hPa | 0 mm | - | - | - |
| 1777844840 | 15° C | 74% | 1009.9 hPa | 0 mm | - | - | - |
| 1777844061 | 15.56° C | 75% | 1009.5 hPa | 0 mm | - | - | - |
| 1777843281 | 15.56° C | 77% | 1009 hPa | 0 mm | - | - | - |
| 1777842500 | 15.56° C | 78% | 1008.3 hPa | 0 mm | - | - | - |
* Rain latest hour (hover to see other rain measurements)
** Current wind speed in m/s (hover to see current wind gust speed)